Simultaneous Nadir Overpasses (SNOs) Predictions

Prediction of SNOs between GOES-15 and TERRA Satellite Orbit:

Table of predicted SNOs for the next 14.0 days since TLE Epoch: 11/28/2020
Index Date Time (GOES-15) GOES-15 Lat,Lon TERRA Lat,Lon Distance(km) Time Diff (sec)
1 11/28/2020 19:18:11 0.18,-127.85 1.10,-132.20 493.55 80
2 11/30/2020 06:47:23 -0.20,-127.92 0.60,-124.08 436.67 80
3 11/30/2020 19:05:59 0.19,-127.91 0.46,-129.24 151.25 80
4 12/02/2020 18:56:27 0.19,-127.96 -0.18,-126.29 190.43 80
5 12/03/2020 07:15:11 -0.18,-127.99 -0.92,-131.48 396.49 80
6 12/05/2020 07:02:59 -0.19,-128.03 -0.27,-128.52 55.51 80
7 12/07/2020 06:53:26 -0.20,-128.07 0.33,-125.56 285.21 80
8 12/07/2020 19:12:02 0.18,-128.06 0.73,-130.72 302.92 80
9 12/09/2020 19:02:29 0.18,-128.09 0.13,-127.76 37.21 80
10 12/11/2020 18:50:17 0.19,-128.12 -0.54,-124.81 376.75 80
11 12/12/2020 07:09:01 -0.17,-128.14 -0.55,-130.00 211.10 80
